Regional Weather Roundup
Issued by NWS

Home | Current Version | Previous Version | Graphics & Text | Print | Product List | Glossary On
Versions: 1 2 3 4 5 6 7 8 9 10 11 12 13 14 15 16 17 18 19 20 21 22 23 24 25 26 27 28 29 30 31 32 33 34 35 36 37 38 39 40 41 42 43 44 45 46 47 48 49 50
000
ASUS45 KPSR 300310
RWRAZ

ARIZONA HOURLY REGIONAL WEATHER ROUNDUP
NATIONAL WEATHER SERVICE PHOENIX AZ
800 PM MST WED MAR 29 2017

NOTE: FAIR INDICATES FEW OR NO CLOUDS BELOW 12,000 FEET WITH NO
SIGNIFICANT WEATHER AND/OR OBSTRUCTIONS TO VISIBILITY.

AZZ001>003-036-300400-
NORTHWEST ARIZONA

CITY           SKY/WX    TMP DP  RH WIND       PRES   REMARKS
BULLHEAD CITY  CLEAR     77  23  13 N6        29.93S
KINGMAN        CLEAR     56  10  16 E9        30.06R
$$

AZZ004>008-015-016-018-300400-
NORTH CENTRAL ARIZONA

CITY           SKY/WX    TMP DP  RH WIND       PRES   REMARKS
GRAND CANYON   CLEAR     38  27  64 CALM      30.15R
WILLIAMS       CLEAR     48  19  32 CALM      30.15R
PRESCOTT       CLEAR     59  23  25 W14       30.07R
FLAGSTAFF      CLEAR     40  23  50 CALM      30.15R
PAYSON         PTCLDY    61  18  18 CALM      30.10R
PAGE           CLEAR     62  19  19 S3        30.00S
$$

AZZ009>014-017-300400-
NORTHEAST ARIZONA

CITY           SKY/WX    TMP DP  RH WIND       PRES   REMARKS
WINSLOW        CLEAR     57   9  14 N7        30.06R
SAINT JOHNS    CLEAR     47  22  37 W9        30.07R
WINDOW ROCK    CLEAR     46  21  37 CALM      30.10R
SHOW LOW       CLEAR     46  14  27 W6        30.14R
$$

AZZ023-300400-
GREATER PHOENIX AREA

CITY           SKY/WX    TMP DP  RH WIND       PRES   REMARKS
PHOENIX        PTCLDY    78  26  14 W14       29.90R
BUCKEYE        CLEAR     72  25  17 W9        29.92S
GLENDALE       CLEAR     79  23  12 SW12      29.92R
LUKE AFB       CLEAR     73  31  20 SW8       29.90R
DEER VALLEY    CLEAR     74  24  15 SW7       29.92R
SCOTTSDALE     CLEAR     77  23  13 SW5       29.93R
MESA-GATEWAY   PTCLDY    72  27  18 S7        29.93R
CHANDLER       CLEAR     75  23  14 SW7       29.92R
$$

AZZ027-028-300400-
SOUTHWEST MARICOPA COUNTY AND PINAL COUNTY

CITY           SKY/WX    TMP DP  RH WIND       PRES   REMARKS
CASA GRANDE    NOT AVBL
GILA BEND      CLEAR     72  18  13 SW3       29.92R
$$

AZZ503-504-507>509-300400-
SOUTHEAST ARIZONA

CITY           SKY/WX    TMP DP  RH WIND       PRES   REMARKS
TUCSON         CLEAR     70  27  20 NW7       30.02R
DAVIS-MONTHAN  PTCLDY    67  27  21 NW6       30.01R
RYAN FIELD     CLEAR     70  28  21 CALM      30.02R
NOGALES        PTCLDY    57  20  23 NE3       30.06R
SIERRA VISTA   CLEAR     59  20  22 W13       30.10R
DOUGLAS        CLEAR     57  22  25 N8        30.05R
SAFFORD        CLEAR     68  25  19 NW13      29.97R
$$

AZZ020-021-025-026-031-300400-
SOUTHWEST ARIZONA

CITY           SKY/WX    TMP DP  RH WIND       PRES   REMARKS
YUMA           CLEAR     78  32  18 W7        29.91R
$$

CAZ031-033-041-043-047-048-061-300400-
SOUTHERN CALIFORNIA

CITY           SKY/WX    TMP DP  RH WIND       PRES   REMARKS
DOWNTOWN L.A.  CLEAR     68  47  46 CALM      29.99S
L.A. AIRPORT   PTCLDY    64  51  62 W12       30.00S
SAN DIEGO      PTCLDY    69  46  43 CALM      30.02F
BURBANK        CLEAR     76  28  17 W10       30.00R
ONTARIO        PTCLDY    72  36  26 SW8       30.01R
RIVERSIDE      CLEAR     71  36  27 W5        30.01R
PALM SPRINGS   CLEAR     85  33  15 NW10      29.92S
EL CENTRO NAS  PTCLDY    78  18  10 SW7       29.92R
IMPERIAL       CLEAR     78  33  19 S3        29.90R
BLYTHE         CLEAR     77  25  14 NW3       29.91S
NEEDLES        CLEAR     75  23  14 NW8       29.94S
$$

NVZ020-UTZ003-300400-
SOUTHERN NEVADA-UTAH

CITY           SKY/WX    TMP DP  RH WIND       PRES   REMARKS
LAS VEGAS      PTCLDY    73  22  14 CALM      29.98S
SALT LAKE CITY MOCLDY    52  37  56 CALM      30.08F
$$

NMZ009-TXZ055-300400-
NEW MEXICO-WEST TEXAS

CITY           SKY/WX    TMP DP  RH WIND       PRES   REMARKS
ALBUQUERQUE    MOCLDY    55  32  41 SE5       30.02R
EL PASO        MOCLDY    59  31  34 E10       30.07R
$$


........................KEY........................
SKY/WX - SKY CONDITION/WEATHER
TMP    - TEMPERATURE IN FAHRENHEIT
DP     - DEW POINT IN FAHRENHEIT
RH     - RELATIVE HUMIDITY IN PERCENT
WIND   - DIRECTION AND SPEED IN MILES PER HOUR (MPH)
VRB    - VARIABLE WIND DIRECTION
PRES   - MEAN SEA LEVEL PRESSURE IN INCHES OF MERCURY
         F - FALLING PRESSURE   R - RISING PRESSURE
         S - STEADY PRESSURE
VSB    - VISIBILITY IN MILES
HX     - HEAT INDEX IN FAHRENHEIT
WCI    - WIND CHILL INDEX IN FAHRENHEIT
TC     - TEMPERATURE IN CELSIUS WHICH IS ALSO KNOWN AS
         TEMPERATURE IN CENTIGRADE
AFB    - AIR FORCE BASE
         LUKE AFB IS LUKE AIR FORCE BASE
         DAVIS-MONTHAN IS DAVIS-MONTHAN AIR FORCE BASE
NAS    - NAVAL AIR STATION
         EL CENTRO NAS IS EL CENTRO NAVAL AIR STATION
N/A    - NOT AVAILABLE




USA.gov is the U.S. government's official web portal to all federal, state and local government web resources and services.